Vertical_Velocity
0 -1 2 2 0 -1 1 1 0 -0 0 0 -0 -0 0 0 -0 -1 -1 -0 -1 -0 -0 -0 -0 -1 -1 -1 -2 -2 -1 -3 -2
-1 1 1 1 0 0 -1 1 0 1 0 0 -1 0 -1 1 -1 -0 -1 -1 -1 -1 -1 -1 -1 -1 -1 -1 -1 -1 -1 -0 -2
-0 0 -0 2 1 0 -1 1 1 0 0 -0 -0 0 -1 -1 2 1 -1 0 -1 -1 -1 1 -1 -2 -1 -0 -1 -1 -2 -1 -0
1 3 1 0 1 1 -0 0 2 1 0 -0 -1 1 -0 -2 -1 1 0 -0 1 1 -1 -1 -0 -0 -1 -1 -1 -1 -1 -0 -1
0 0 2 1 0 0 0 -0 1 1 0 -0 -0 -2 2 -0 -1 -1 2 -2 -1 -0 0 -1 -2 0 -0 -1 -1 -2 -1 0 0
1 1 -0 1 1 -1 -0 -1 0 1 2 -1 -0 -2 1 0 1 -0 -0 2 0 -1 -0 -0 -1 -1 -2 -1 -1 -0 -0 -1 -1
0 1 0 -1 1 1 0 -1 0 1 2 2 1 1 -2 1 -1 0 -1 0 1 -2 -2 -1 -1 -2 -1 -1 -2 -1 -3 -1 -1
-1 2 1 1 -1 1 -0 -0 0 -0 1 1 2 1 -1 1 -1 -1 -1 -1 0 -1 -0 -0 -1 -2 -1 -2 -1 -1 -0 -3 -3
0 0 0 -0 -0 2 -0 -1 -1 -1 1 1 1 2 0 1 -1 -0 0 -1 1 0 0 -1 -0 -0 -1 -0 1 -0 -3 -3 -0
-0 -0 0 -2 -0 0 0 1 0 -0 0 0 1 1 -1 -3 1 0 2 0 -1 -1 -1 -0 -1 -0 -1 -2 -1 -1 0 -0 -1
0 -0 0 2 1 -2 -1 1 -0 -0 -1 1 -0 1 -0 -2 2 -1 -2 1 -1 -0 -0 -1 -1 -2 0 -1 -1 -1 -1 -1 -1
1 -2 0 1 -0 -0 -1 -2 -1 1 1 1 1 1 1 0 0 1 -2 2 1 2 -0 -1 -2 -2 -1 -1 -0 0 -1 -2 -1
-2 -1 0 -1 0 0 -1 1 -1 -1 -1 0 0 1 3 2 1 3 -0 -0 0 2 -2 -1 -1 -0 0 -1 -2 -2 -3 -1 1
3 1 -2 -0 -0 1 -2 -0 -2 1 1 -1 1 -0 1 2 1 4 -1 2 -3 -1 -0 -3 -1 -1 -0 -1 -2 -2 -1 -3 -1
1 0 1 2 2 0 0 0 -1 1 -1 -0 0 2 2 1 -8 7 -4 -1 -1 1 -1 1 -1 -0 -0 -0 -2 -4 -3 -2 -3
-2 2 -0 -1 0 1 -1 -1 3 -2 -0 1 -1 -2 3 0 1 -7 -2 -3 1 0 -1 1 -3 1 -1 -2 -4 -3 -4 -1 -1
3 2 2 1 2 0 3 2 -0 -2 0 -2 -5 -2 -2 1 -5 -5 -4 -1 -0 2 1 -1 -0 2 -0 -1 -2 -0 -2 -2 -1
3 -0 -0 1 -3 2 -0 1 3 -4 -0 0 0 -3 3 -5 -1 2 -6 -6 0 -0 -1 1 -0 -0 -1 -1 -0 -2 -0 2 2
-0 1 1 -1 1 3 1 -1 -0 2 -2 1 -2 -5 -2 -1 5 -3 -2 -0 -2 -2 -1 -0 -3 -1 -1 -0 -1 -0 -1 -2 1
-3 -3 -3 -0 0 -2 7 3 9 10 8 7 -2 -2 -3 -0 0 -0 0 0 -2 -2 -3 -1 -1 -1 -0 -3 -2 0 -2 -5 -2
Height
5873 5874 5876 5877 5877 5878 5878 5879 5879 5879 5879 5879 5879 5881 5881 5881 5882 5881 5881 5880 5879 5877 5876 5875 5873 5872 5870 5869 5867 5864 5862 5860 5857
5871 5872 5873 5875 5876 5877 5877 5878 5878 5878 5878 5878 5878 5879 5879 5880 5880 5880 5880 5879 5878 5877 5875 5874 5872 5871 5869 5867 5865 5863 5860 5858 5856
5867 5869 5870 5872 5873 5874 5875 5876 5876 5876 5876 5877 5876 5877 5877 5878 5878 5878 5878 5877 5876 5875 5874 5873 5872 5870 5868 5866 5863 5861 5859 5857 5854
5863 5865 5866 5868 5869 5870 5871 5872 5874 5874 5875 5874 5874 5875 5876 5876 5876 5876 5876 5876 5875 5874 5873 5872 5871 5869 5867 5865 5863 5860 5857 5855 5853
5861 5862 5863 5864 5866 5866 5867 5869 5871 5871 5871 5871 5872 5872 5873 5874 5875 5875 5874 5874 5873 5872 5871 5870 5868 5867 5865 5862 5861 5858 5856 5853 5849
5856 5858 5860 5861 5861 5862 5864 5865 5866 5868 5869 5869 5869 5870 5871 5872 5872 5872 5872 5871 5871 5870 5869 5868 5866 5864 5863 5861 5858 5855 5852 5850 5847
5851 5854 5855 5856 5857 5858 5860 5861 5862 5864 5865 5866 5866 5867 5867 5869 5869 5869 5868 5868 5867 5867 5866 5865 5863 5861 5860 5858 5856 5853 5850 5847 5844
5845 5848 5850 5851 5852 5854 5855 5857 5858 5860 5861 5862 5863 5864 5864 5865 5866 5865 5865 5864 5864 5863 5863 5862 5860 5858 5856 5854 5851 5849 5846 5842 5839
5840 5842 5844 5846 5848 5849 5851 5852 5853 5855 5857 5858 5859 5859 5859 5860 5861 5862 5861 5861 5860 5859 5859 5857 5856 5854 5852 5851 5847 5843 5840 5838 5835
5833 5835 5838 5840 5843 5844 5846 5848 5849 5850 5851 5853 5854 5855 5855 5856 5856 5857 5856 5856 5856 5855 5854 5853 5852 5851 5848 5845 5843 5840 5837 5834 5831
5827 5829 5832 5834 5837 5838 5840 5842 5844 5846 5846 5848 5848 5849 5850 5850 5851 5851 5852 5851 5850 5850 5849 5849 5847 5845 5843 5840 5838 5836 5832 5829 5826
5820 5823 5825 5828 5830 5832 5835 5836 5838 5840 5840 5841 5843 5844 5845 5845 5845 5845 5847 5845 5845 5844 5843 5842 5842 5840 5837 5834 5832 5830 5827 5825 5821
5813 5815 5818 5821 5824 5825 5827 5830 5831 5832 5834 5836 5837 5838 5839 5840 5839 5839 5840 5840 5838 5837 5836 5835 5834 5833 5830 5828 5825 5823 5821 5819 5815
5805 5807 5810 5813 5815 5818 5820 5823 5824 5825 5826 5828 5830 5831 5832 5833 5834 5834 5834 5833 5832 5830 5829 5828 5826 5825 5823 5820 5818 5817 5815 5812 5810
5796 5800 5801 5805 5807 5809 5812 5814 5815 5817 5819 5820 5821 5823 5823 5826 5827 5828 5827 5826 5825 5824 5822 5821 5819 5818 5816 5814 5812 5810 5807 5805 5803
5786 5791 5792 5796 5799 5801 5803 5805 5807 5809 5812 5812 5814 5815 5816 5816 5816 5818 5818 5818 5818 5817 5815 5813 5811 5810 5808 5806 5804 5802 5800 5798 5796
5775 5780 5784 5787 5790 5792 5795 5797 5798 5799 5803 5803 5804 5806 5806 5806 5807 5808 5808 5807 5809 5808 5805 5804 5803 5802 5801 5799 5797 5794 5792 5790 5788
5766 5770 5773 5778 5780 5783 5786 5787 5787 5789 5790 5792 5794 5794 5796 5796 5798 5798 5797 5797 5798 5797 5795 5795 5793 5793 5792 5791 5790 5788 5786 5784 5781
5755 5759 5763 5766 5769 5773 5775 5776 5775 5777 5780 5780 5782 5783 5787 5787 5789 5787 5788 5787 5787 5786 5786 5785 5784 5784 5783 5782 5781 5781 5779 5776 5774
5746 5749 5753 5756 5758 5761 5765 5767 5769 5770 5772 5774 5773 5774 5777 5778 5778 5779 5779 5778 5777 5777 5777 5776 5777 5776 5776 5776 5775 5773 5772 5770 5767